Regional Weather Roundup
Issued by NWS Boston, MA

Home | Current Version | Previous Version | Text Only | Print | Product List | Glossary On
Versions: 1 2 3 4 5 6 7 8 9 10 11 12 13 14 15 16 17 18 19 20 21 22 23 24 25 26 27 28 29 30 31 32 33 34 35 36 37 38 39 40 41 42 43 44 45 46 47 48 49 50
768
ASUS41 KBOX 292010
RWRBOX

REGIONAL WEATHER ROUNDUP
NATIONAL WEATHER SERVICE TAUNTON MA
400 PM EDT WED MAR 29 2017

NOTE:  "FAIR" INDICATES FEW OR NO CLOUDS BELOW 12,000 FEET WITH NO
SIGNIFICANT WEATHER AND/OR OBSTRUCTIONS TO VISIBILITY.

MAZALL-292100-
EASTERN MASSACHUSETTS

CITY           SKY/WX    TMP DP  RH WIND       PRES   REMARKS
BOSTON         CLOUDY    45  29  53 NW16G25   30.04R
BEVERLY        PTSUNNY   46  30  53 NW14G22   30.01S
LAWRENCE       CLOUDY    43  28  55 NW16G22   30.04S
BEDFORD        CLOUDY    45  24  43 N18G26    30.03R
BLUE HILL        N/A     43  28  55 NW16G23   29.99S
NORWOOD        CLOUDY    47  29  49 N10G22    30.03R
MARSHFIELD     CLOUDY    43  36  75 VRB7G13   30.02R
PLYMOUTH       CLOUDY    43  35  73 E9        30.00S
TAUNTON        CLOUDY    49  30  48 N13G20    30.00S
NEW BEDFORD    CLOUDY    46  36  68 N6        30.00S
$$

MAZALL-292100-
CAPE COD AND THE ISLANDS

CITY           SKY/WX    TMP DP  RH WIND       PRES   REMARKS
FALMOUTH       CLOUDY    43  34  70 MISG      30.01S
HYANNIS        CLOUDY    43  35  73 N13G23    29.98S
CHATHAM        PTSUNNY   46  35  65 N14G23    30.00R
PROVINCETOWN   CLOUDY    41  36  82 N8        30.02R
NANTUCKET      SUNNY     45  35  68 N16G25    29.99R
MARTHAS VNYRD  CLOUDY    49  33  54 N17G26    29.99S
$$

MAZALL-292100-
CENTRAL AND WESTERN MASSACHUSETTS

CITY           SKY/WX    TMP DP  RH WIND       PRES   REMARKS
WORCESTER      MOSUNNY   43  24  47 N20G25    30.02R
FITCHBURG      CLOUDY    45  27  49 NW20G28   30.06R
ORANGE         CLOUDY    41  27  57 N17G26    30.08R
SPRINGFIELD    PTSUNNY   50  27  40 N20G28    30.05R
WESTFIELD      PTSUNNY   49  27  42 NW22G28   30.06R
NORTH ADAMS    CLOUDY    41  27  57 N10G17    30.10R
PITTSFIELD     CLOUDY    40  27  59 NW10      30.06R
$$

RIZALL-292100-
RHODE ISLAND

CITY           SKY/WX    TMP DP  RH WIND       PRES   REMARKS
PROVIDENCE     MOSUNNY   51  29  42 N21       30.01S
NEWPORT        PTSUNNY   50  33  52 N16G22    29.99F
BLOCK ISLAND   PTSUNNY   46  36  68 NE7       30.01S
SMITHFIELD     PTSUNNY   47  30  51 NW14      30.01S
WESTERLY       PTSUNNY   56  33  42 NW8       30.00F
$$

CTZALL-292100-
CONNECTICUT

CITY           SKY/WX    TMP DP  RH WIND       PRES   REMARKS
BRADLEY INTL   PTSUNNY   50  28  42 N16G24    30.05S
HARTFORD       MOSUNNY   52  29  41 N15       30.05R
BRIDGEPORT     SUNNY     56  31  38 NW21G29   30.03S
DANBURY        SUNNY     52  31  44 N17G25    30.06R
GROTON         MOSUNNY   57  31  37 NW18G25   29.99S
NEW HAVEN      MOSUNNY   53  30  41 N16G29    30.04R
CHESTER        NOT AVBL
MERIDEN        MOSUNNY   52  31  44 NW16G29   30.05S
WILLIMANTIC    MOSUNNY   54  30  40 NW17G25   30.02S
OXFORD         MOSUNNY   48  28  46 N22G28    30.05S
$$

MEZ002-015-021-024-NHZ003-005-008-011-012-014-VTZ005-008-292100-
NORTHERN NEW ENGLAND

CITY           SKY/WX    TMP DP  RH WIND       PRES   REMARKS
PORTLAND ME    CLOUDY    41  25  53 NW16      30.02R
BANGOR ME      LGT RAIN  38  31  76 N14       29.98S WCI  30
CONCORD NH     CLOUDY    41  25  53 NW17      30.06R
MANCHESTER NH  PTSUNNY   43  24  47 NW15G29   30.04S
NASHUA NH      CLOUDY    43  25  49 NW23G30   30.06R
PORTSMOUTH NH  CLOUDY    43  27  52 NW18      30.01R
JAFFREY NH     CLOUDY    40  22  48 NW7G23    30.05R
KEENE NH       CLOUDY    40  26  57 NW12G21   30.09R
BURLINGTON VT  CLOUDY    40  25  55 NW14      30.16S
MT. WASHINGTON SNOWSHWR  12  12 100 NW41G60     N/A  VSB 0   WCI -12
$$

NYZ052-076-292100-
EASTERN NEW YORK

CITY           SKY/WX    TMP DP  RH WIND       PRES   REMARKS
ALBANY         CLOUDY    48  29  47 N9G20     30.12S
NEW YORK CITY  MOSUNNY   58  29  33 NW15      30.03S
$$

ANZALL-292100-
MARINE OBSERVATIONS

STATION/POSITION TIME  TEMP    WIND        PRES    VSBY  WAVE
                       AIR SEA DIR/SP/G                  HT/PER
                 (UTC) (F)     (DEG/KT/KT) (MB)    (MI)  (FT/S)
BOSTON BUOY      1850   40 40   40/  6/  6 1015.5          4/ 6
BUZZARDS BAY     1900   43      10/ 10/ 10 1016.6R
NANTUCKET SOUND  1950      40              1015.6R         3/ 4
MASS BAY-STELLWA 1904   40 40   30/  6/  8 1014.8F         4/ 9
ISLE OF SHOALS   1900   40        CALM     1015.9F
S OF BLOCK IS    1955      40                N/A           3/11
$$

......................KEY.........................
  SKY/WX - SKY CONDITION/PRESENT WEATHER
  TMP    - TEMPERATURE IN FAHRENHEIT
  DWPT   - DEWPOINT IN FAHRENHEIT
  RH     - RELATIVE HUMIDITY IN PERCENT
  WIND   - DIRECTION AND SPEED IN MPH
  PRES   - MEAN SEA LEVEL PRESSURE IN INCHES OF HG
  WCI    - WIND CHILL INDEX
  VSB    - VISIBILITY IN MILES
  HX     - HEAT INDEX
  TC     - TEMPERATURE IN CELSIUS
  VRB    - VARIABLE WIND DIRECTION
  N/A    - NOT AVAILABLE




USA.gov is the U.S. government's official web portal to all federal, state and local government web resources and services.